2020-102B (47297 NORAD) Tracking and Keplerian Element Data

This shows tracking and keplerian element data for the satellite.

Feedback or suggestion? Click here.




ElementValue
Catalog47297
Name2020-102B
Epoch Orbit380
Epoch Day16.34408595
Epoch Year2021
RAAN116.3358
Inclination97.4334
Eccentricity0.0007946
Argument of Perigee86.8408
Mean Anonmoly359.8049
Mean Motion15.19282926
Decay Rate8.37E-06
L11 47297U 20102B 21016.34408595 .00000837 00000-0 42856-4 0 9999
L22 47297 97.4334 116.3358 0007946 86.8408 359.8049 15.19282926 3802

Live tracking and technical data element details for 2020-102B (NORAD 47297). 2020-102B can be tracked NOW for your location showing map with azimuth and elevation plus other details from your city location.

Track the satellite on the map from your city or location and see movement details for azimuth, elevation, latitude, longitude, range, height, and movement on the map or in text.







IsCatalogInMostPopularTable: catalog: 47297, numindb: 6
Update: records affected: 1



GetName: 47297 2020-102B

Hit Count: updated at: Sun, 17 Jan 2021 09:23:55 GMT